Regional Weather Roundup
Issued by NWS

Home | Current Version | Previous Version | Graphics & Text | Print | Product List | Glossary On
Versions: 1 2 3 4 5 6 7 8 9 10 11 12 13 14 15 16 17 18 19 20 21 22 23 24 25 26 27 28 29 30 31 32 33 34 35 36 37 38 39 40 41 42 43 44 45 46 47 48 49 50
000
ASUS43 KLOT 212308
RWRIL

ILLINOIS REGIONAL WEATHER ROUNDUP
NATIONAL WEATHER SERVICE CHICAGO/ROMEOVILLE IL
500 PM CST TUE FEB 21 2017

NOTE: "FAIR" INDICATES FEW OR NO CLOUDS BELOW 12,000 FEET WITH NO
SIGNIFICANT WEATHER AND/OR OBSTRUCTIONS TO VISIBILITY.

* THESE STATIONS ARE NOT UNDER NWS QUALITY CONTROL. THEY ALSO MAY NOT
  REPORT WEATHER SUCH AS PRECIPITATION OR FOG.

ILZ001-002-007-009-015-016-024-220000-
NORTHWEST ILLINOIS

CITY           SKY/WX    TMP DP  RH WIND       PRES   REMARKS
MOLINE         CLEAR     67  44  43 NW3       29.88S
STERLING*      CLEAR     63  46  54 SW3       29.90F
SAVANNA*       PTCLDY    60  42  51 CALM      29.90R
$$

ILZ003-004-008-010-011-017-018-220000-
NORTH CENTRAL ILLINOIS

CITY           SKY/WX    TMP DP  RH WIND       PRES   REMARKS
ROCKFORD       PTCLDY    64  38  38 W3        29.91S
FREEPORT*      CLEAR     56  41  56 SW5       29.91S
ROCHELLE*      PTCLDY    62  47  58 W7        29.90S
DE KALB*       CLEAR     62  49  63 CALM      29.90S
PERU*          CLEAR     62  53  72 SW7       29.90S
$$

ILZ005-006-012>014-019>023-220000-
NORTHEAST ILLINOIS

CITY           SKY/WX    TMP DP  RH WIND       PRES   REMARKS
CHICAGO-OHARE  MOCLDY    64  51  62 SW6       29.89S
CHICAGO-MIDWAY MOCLDY    64  52  64 W5        29.90S
AURORA         CLEAR     62  53  72 SW6       29.90F
LANSING*       MOCLDY    62  56  81 SW6       29.91S
JOLIET*        CLOUDY    65  57  75 N5        29.91R
WAUKEGAN       CLEAR     54  49  83 SE3       29.89S
DUPAGE AIRPORT CLEAR     61  50  67 SW6       29.89F
KANKAKEE*      PTCLDY    62  54  74 CALM      29.91S
WHEELING       CLEAR     63  46  54 W5        29.90S
MORRIS*        MOCLDY    64  55  72 CALM      29.89S
ROMEOVILLE*    PTCLDY    62  57  83 NW3       29.91R
NORTHERLY ISL    N/A     64  51  62 W2          N/A
$$

LMZ740>746-220000-
SOUTHERN LAKE MICHIGAN

STATION/POSITION SKY/WX   TEMP    WIND        PRES    VSBY  WAVE
                          AIR SEA DIR/SP/G                  HT/PER
                          (F)     (DEG/KT/KT) (MB)    (MI)  (FT/S)
HARRISON CRIB              58     180/  4/  5   N/A
BURNHAM HARBOR             63     240/  5/ 11   N/A
CALUMET HARBOR             52      80/  2/  4 1012.3R
BURNS HARBOR               49      80/  6/  6 1013.5S
MICHIGAN CITY              48      30/  6/  7   N/A
$$

ILZ025>027-034>036-040-047-049-050-058-095>099-220000-
WEST-CENTRAL ILLINOIS

CITY           SKY/WX    TMP DP  RH WIND       PRES   REMARKS
QUINCY         PTCLDY    65  57  75 CALM      29.89R
GALESBURG*     CLEAR     64  54  69 SW7       29.89F
MACOMB*        PTCLDY    65  57  74 CALM      29.92S
JACKSONVILLE*  CLOUDY    62  57  82 CALM      29.90S
PITTSFIELD*    MOCLDY    65  59  81 SE3       29.91R
$$

ILZ028>032-037-038-041>044-048-051>054-059>061-220000-
CENTRAL ILLINOIS

CITY           SKY/WX    TMP DP  RH WIND       PRES   REMARKS
PONTIAC        PTCLDY    65  57  74 S3        29.91S
BLOOMINGTON    MOCLDY    63  55  75 S5        29.92S
DECATUR        CLOUDY    62  55  77 CALM      29.91R
PEORIA         CLOUDY    66  55  67 SW7       29.89S
LACON*         CLOUDY    64  57  80 N3        29.90R
LINCOLN*       CLOUDY    64  58  83 CALM      29.91R
SPRINGFIELD    CLOUDY    64  57  78 CALM      29.90S
TAYLORVILLE    CLOUDY    61  56  85 CALM      29.91S
$$

ILZ033-039-045-046-055>057-062-063-220000-
EAST-CENTRAL ILLINOIS

CITY           SKY/WX    TMP DP  RH WIND       PRES   REMARKS
CHAMPAIGN      CLOUDY    61  54  77 SE3       29.92R
RANTOUL*       CLOUDY    63  56  79 S5        29.92R
MATTOON        CLOUDY    61  53  75 S5        29.90F
PARIS*         MOCLDY    61  53  75 S5        29.93S
$$

ILZ079-100>102-220000-
SOUTHWEST ILLINOIS

CITY           SKY/WX    TMP DP  RH WIND       PRES   REMARKS
ALTON          MOCLDY    63  55  77 E6        29.90R
BELLEVILLE     CLOUDY    64  56  76 SE5       29.89S
CAHOKIA*       CLOUDY    65  54  67 SE7       29.88F
SPARTA*        CLOUDY    61  55  82 CALM      29.91S
$$

ILZ064>066-069>071-074>076-080>082-084>086-088>090-092>094-220000-
SOUTH-CENTRAL ILLINOIS

CITY           SKY/WX    TMP DP  RH WIND       PRES   REMARKS
CARBONDALE     CLOUDY    62  55  77 SE5       29.90R
CAIRO*         CLOUDY    61  57  85 SE6       29.90R
EFFINGHAM*     CLOUDY    60  55  84 CALM      29.93S
MARION         CLOUDY    64  55  72 S6        29.90S
MT. VERNON     CLOUDY    61  54  77 NE9       29.92R
CENTRALIA*     CLOUDY    62  55  79 CALM      29.90S
SALEM*         CLOUDY    63  53  71 SE5       29.90S
METROPOLIS*    CLOUDY    62  57  83 CALM      29.92R
$$

ILZ067-068-072-073-078-083-087-091-220000-
SOUTHEAST ILLINOIS

CITY           SKY/WX    TMP DP  RH WIND       PRES   REMARKS
LAWRENCEVILLE  CLOUDY    59  57  93 E3        29.93S
FLORA*         CLOUDY    61  56  82 CALM      29.92S
FAIRFIELD*     CLOUDY    59  56  89 N5        29.91R
HARRISBURG*    CLOUDY    62  57  82 SE5       29.91S
ROBINSON*      CLOUDY    58  54  88 SE3       29.93S
CARMI*         CLOUDY    62  56  79 SE6       29.92R
$$

ABBREVIATIONS USED IN REMARKS
   TC - TEMPERATURE IN CELSIUS
  WCI - WIND CHILL INDEX
   HX - HEAT INDEX
  VSB - VISIBILITY
$$




USA.gov is the U.S. government's official web portal to all federal, state and local government web resources and services.